Find Starlink 6350

NORAD ID: 57226 Int'l Des: 2023-094 Owner: SPXS Country: US Constellation: starlink operational
LEOCIRCULAR

Live Position

Loading 3D Globe...

About Starlink 6350

Description loading...

Upcoming Passes

Passes for default location (London). Set your location on the main map for personalized predictions.

Altitude History

Loading altitude history...

Two-Line Element Set

1 57226U 23094J 26122.89963648 -.00000779 00000-0 -18800-4 0 9992
2 57226 43.0028 84.7846 0001293 255.8747 104.1961 15.27566118155400
Epoch: May 2, 2026 • Age: 9 hours

Current Status

Altitude 483.1 km
Velocity 7.63 km/s
Sub-Earth Point -0.10°S, 116.17°E
Launch Date Jul 7, 2023
Age 2.8 years
Type internet

Technical Details

Classification Payload
Mass 305.00 kg
Dry Mass 290.00 kg
Total Mass 305.00 kg
Length 0.20 m
Diameter 2.80 m
Span 9.00 m
Shape Box + pan
Manufacturer SPXS
Bus Type Starlink
Phase Status In Orbit
Owner/State SPXS/US

Most Searched